TimeCEST,TemperatureF,Dew PointF,Humidity,Sea Level PressureIn,VisibilityMPH,Wind Direction,Wind SpeedMPH,Gust SpeedMPH,PrecipitationIn,Events,Conditions,WindDirDegrees,DateUTC
12:00 AM,51.8,44.6,76,30.15,6.2,NNE,3.5,-,N/A,,Mostly Cloudy,20,2012-09-30 22:00:00
1:00 AM,51.8,44.6,76,30.12,6.2,NE,3.5,-,N/A,,Overcast,40,2012-09-30 23:00:00
2:00 AM,50.0,42.8,76,30.12,6.2,ENE,5.8,-,N/A,,Mostly Cloudy,60,2012-10-01 00:00:00
3:00 AM,50.0,42.8,76,30.09,-9999.0,ENE,5.8,-,N/A,,Clear,70,2012-10-01 01:00:00
4:00 AM,50.0,42.8,76,30.09,-9999.0,NE,5.8,-,N/A,,Clear,50,2012-10-01 02:00:00
5:00 AM,51.8,42.8,71,30.09,6.2,East,6.9,-,N/A,,Mostly Cloudy,100,2012-10-01 03:00:00
6:00 AM,51.8,44.6,76,30.06,6.2,East,5.8,-,N/A,,Mostly Cloudy,90,2012-10-01 04:00:00
7:00 AM,51.8,44.6,76,30.06,6.2,East,5.8,-,N/A,,Overcast,100,2012-10-01 05:00:00
8:00 AM,53.6,48.2,82,30.04,6.2,East,5.8,-,N/A,,Mostly Cloudy,100,2012-10-01 06:00:00
9:00 AM,55.4,50.0,82,30.04,6.2,ESE,9.2,-,N/A,,Scattered Clouds,120,2012-10-01 07:00:00
10:00 AM,59.0,53.6,82,30.06,6.2,SE,10.4,-,N/A,,Partly Cloudy,130,2012-10-01 08:00:00
11:00 AM,59.0,53.6,82,30.06,6.2,SSE,9.2,-,N/A,,Mostly Cloudy,150,2012-10-01 09:00:00
12:00 PM,62.6,53.6,72,30.04,6.2,SSE,11.5,-,N/A,,Scattered Clouds,160,2012-10-01 10:00:00
1:00 PM,64.4,53.6,68,30.04,6.2,SSE,8.1,-,N/A,,Partly Cloudy,160,2012-10-01 11:00:00
2:00 PM,66.2,55.4,68,30.04,6.2,SSE,9.2,-,N/A,,Scattered Clouds,160,2012-10-01 12:00:00
3:00 PM,66.2,53.6,64,30.04,6.2,South,6.9,-,N/A,,Mostly Cloudy,170,2012-10-01 13:00:00
4:00 PM,66.2,53.6,64,30.04,6.2,SE,5.8,-,N/A,,Mostly Cloudy,130,2012-10-01 14:00:00
5:00 PM,64.4,53.6,68,30.04,-9999.0,South,4.6,-,N/A,,Clear,190,2012-10-01 15:00:00
7:00 PM,62.6,53.6,72,30.04,-9999.0,West,6.9,-,N/A,,Clear,280,2012-10-01 17:00:00
8:00 PM,60.8,51.8,72,30.06,-9999.0,NW,8.1,-,N/A,,Clear,320,2012-10-01 18:00:00
9:00 PM,57.2,51.8,82,30.06,-9999.0,NNW,5.8,-,N/A,,Clear,340,2012-10-01 19:00:00
10:00 PM,57.2,51.8,82,30.06,-9999.0,NNW,5.8,-,N/A,,Clear,330,2012-10-01 20:00:00
11:00 PM,55.4,51.8,88,30.06,-9999.0,NNW,4.6,-,N/A,,Clear,330,2012-10-01 21:00:00